Time,TemperatureF,DewpointF,PressureIn,WindDirection,WindDirectionDegrees,WindSpeedMPH,WindSpeedGustMPH,Humidity,HourlyPrecipIn,Conditions,Clouds,dailyrainin,SoftwareType,DateUTC
2013-01-29 00:01:00,25.0,21.0,-100.00,South,179,9.0,13.0,84,0.04,,,-99.99,,2013-01-29 07:01:00,
2013-01-29 00:11:00,26.0,21.0,-100.00,SSW,200,8.0,11.0,83,0.00,,,-99.99,,2013-01-29 07:11:00,
2013-01-29 00:21:00,26.0,21.0,-100.00,SSW,200,8.0,11.0,83,0.00,,,-99.99,,2013-01-29 07:21:00,
2013-01-29 00:31:00,26.0,21.0,-100.00,SSW,200,8.0,11.0,83,0.00,,,-99.99,,2013-01-29 07:31:00,
2013-01-29 00:41:00,26.0,21.0,-100.00,SSW,198,7.0,10.0,82,0.00,,,-99.99,,2013-01-29 07:41:00,
2013-01-29 00:52:00,26.0,21.0,-100.00,SSW,198,7.0,10.0,82,0.00,,,-99.99,,2013-01-29 07:52:00,
2013-01-29 01:01:00,26.0,21.0,-100.00,SSW,198,7.0,10.0,82,0.00,,,-99.99,,2013-01-29 08:01:00,
2013-01-29 01:11:00,26.0,21.0,-100.00,South,178,8.0,10.0,82,0.00,,,-99.99,,2013-01-29 08:11:00,
2013-01-29 01:21:00,24.0,22.0,-100.00,South,169,10.0,14.0,92,0.08,,,-99.99,,2013-01-29 08:21:00,
2013-01-29 01:31:00,24.0,22.0,-100.00,South,169,10.0,14.0,92,0.08,,,-99.99,,2013-01-29 08:31:00,
2013-01-29 01:42:00,24.0,22.0,-100.00,SSE,168,11.0,14.0,94,0.20,,,-99.99,,2013-01-29 08:42:00,
2013-01-29 01:52:00,24.0,22.0,-100.00,SSE,168,11.0,14.0,94,0.20,,,-99.99,,2013-01-29 08:52:00,
2013-01-29 02:01:00,24.0,22.0,-100.00,SSE,168,11.0,14.0,94,0.20,,,-99.99,,2013-01-29 09:01:00,
2013-01-29 02:11:00,24.0,22.0,-100.00,SSE,168,11.0,15.0,95,0.12,,,-99.99,,2013-01-29 09:11:00,
2013-01-29 02:21:00,23.0,22.0,-100.00,South,175,10.0,17.0,96,0.08,,,-99.99,,2013-01-29 09:21:00,
2013-01-29 02:31:00,23.0,22.0,-100.00,South,175,10.0,17.0,96,0.08,,,-99.99,,2013-01-29 09:31:00,
2013-01-29 02:42:00,23.0,22.0,-100.00,South,181,9.0,12.0,96,0.08,,,-99.99,,2013-01-29 09:42:00,
2013-01-29 02:52:00,24.0,23.0,-100.00,South,176,8.0,10.0,96,0.12,,,-99.99,,2013-01-29 09:52:00,
2013-01-29 03:01:00,24.0,23.0,-100.00,South,176,8.0,10.0,96,0.12,,,-99.99,,2013-01-29 10:01:00,
2013-01-29 03:11:00,23.0,22.0,-100.00,South,175,10.0,14.0,96,0.08,,,-99.99,,2013-01-29 10:11:00,
2013-01-29 03:21:00,23.0,22.0,-100.00,South,178,10.0,12.0,96,0.08,,,-99.99,,2013-01-29 10:21:00,
2013-01-29 03:32:00,23.0,22.0,-100.00,South,178,10.0,12.0,96,0.08,,,-99.99,,2013-01-29 10:32:00,
2013-01-29 03:41:00,23.0,22.0,-100.00,South,182,11.0,13.0,96,0.04,,,-99.99,,2013-01-29 10:41:00,
2013-01-29 03:52:00,23.0,22.0,-100.00,South,182,10.0,14.0,95,0.04,,,-99.99,,2013-01-29 10:52:00,
2013-01-29 04:01:00,23.0,22.0,-100.00,South,182,10.0,14.0,95,0.04,,,-99.99,,2013-01-29 11:01:00,
2013-01-29 04:11:00,23.0,22.0,-100.00,South,182,10.0,14.0,95,0.04,,,-99.99,,2013-01-29 11:11:00,
2013-01-29 04:21:00,23.0,22.0,-100.00,South,182,12.0,16.0,95,0.04,,,-99.99,,2013-01-29 11:21:00,
2013-01-29 04:31:00,23.0,22.0,-100.00,South,182,12.0,16.0,95,0.04,,,-99.99,,2013-01-29 11:31:00,
2013-01-29 04:42:00,23.0,22.0,-100.00,South,175,13.0,17.0,95,0.00,,,-99.99,,2013-01-29 11:42:00,
2013-01-29 04:52:00,24.0,22.0,-100.00,South,184,11.0,13.0,95,0.00,,,-99.99,,2013-01-29 11:52:00,
2013-01-29 05:02:00,24.0,22.0,-100.00,South,184,11.0,13.0,95,0.00,,,-99.99,,2013-01-29 12:02:00,
2013-01-29 05:12:00,25.0,23.0,-100.00,SSW,213,7.0,12.0,95,0.00,,,-99.99,,2013-01-29 12:12:00,
2013-01-29 05:22:00,25.0,23.0,-100.00,SSW,213,7.0,12.0,95,0.00,,,-99.99,,2013-01-29 12:22:00,
2013-01-29 05:32:00,25.0,23.0,-100.00,SSW,213,7.0,12.0,95,0.00,,,-99.99,,2013-01-29 12:32:00,
2013-01-29 05:42:00,25.0,23.0,-100.00,SW,230,6.0,8.0,94,0.00,,,-99.99,,2013-01-29 12:42:00,
2013-01-29 05:52:00,24.0,23.0,-100.00,SSW,206,7.0,9.0,93,0.00,,,-99.99,,2013-01-29 12:52:00,
2013-01-29 06:01:00,24.0,23.0,-100.00,SSW,206,7.0,9.0,93,0.00,,,-99.99,,2013-01-29 13:01:00,
2013-01-29 06:11:00,25.0,24.0,-100.00,SSW,213,6.0,8.0,94,0.00,,,-99.99,,2013-01-29 13:11:00,
2013-01-29 06:22:00,25.0,24.0,-100.00,SSW,213,6.0,8.0,94,0.00,,,-99.99,,2013-01-29 13:22:00,
2013-01-29 06:32:00,25.0,24.0,-100.00,SSW,213,6.0,8.0,94,0.00,,,-99.99,,2013-01-29 13:32:00,
2013-01-29 06:42:00,26.0,24.0,-100.00,SSW,196,5.0,7.0,92,0.00,,,-99.99,,2013-01-29 13:42:00,
2013-01-29 06:52:00,26.0,24.0,-100.00,SSW,202,4.0,9.0,92,0.00,,,-99.99,,2013-01-29 13:52:00,
2013-01-29 07:02:00,26.0,24.0,-100.00,SSW,202,4.0,9.0,92,0.00,,,-99.99,,2013-01-29 14:02:00,
2013-01-29 07:12:00,26.0,24.0,-100.00,SSW,196,4.0,6.0,92,0.00,,,-99.99,,2013-01-29 14:12:00,
2013-01-29 07:21:00,26.0,24.0,-100.00,West,270,4.0,6.0,93,0.00,,,-99.99,,2013-01-29 14:21:00,
2013-01-29 07:32:00,26.0,24.0,-100.00,West,270,4.0,6.0,93,0.00,,,-99.99,,2013-01-29 14:32:00,
2013-01-29 07:43:00,-999.0,24.0,-100.00,SSW,205,5.0,7.0,93,0.00,,,-99.99,,2013-01-29 14:43:00,
2013-01-29 07:53:00,25.0,23.0,-100.00,SSW,193,7.0,9.0,95,0.00,,,-99.99,,2013-01-29 14:53:00,
2013-01-29 08:02:00,25.0,23.0,-100.00,SSW,193,7.0,9.0,95,0.00,,,-99.99,,2013-01-29 15:02:00,
2013-01-29 08:12:00,25.0,24.0,-100.00,South,172,6.0,8.0,96,0.00,,,-99.99,,2013-01-29 15:12:00,
2013-01-29 08:22:00,25.0,24.0,-100.00,SW,227,2.0,3.0,96,0.00,,,-99.99,,2013-01-29 15:22:00,
2013-01-29 08:32:00,25.0,24.0,-100.00,SW,227,2.0,3.0,96,0.00,,,-99.99,,2013-01-29 15:32:00,
2013-01-29 08:42:00,25.0,24.0,-100.00,SSW,196,3.0,5.0,96,0.04,,,-99.99,,2013-01-29 15:42:00,
2013-01-29 08:53:00,25.0,24.0,-100.00,SSW,205,3.0,4.0,97,0.04,,,-99.99,,2013-01-29 15:53:00,
2013-01-29 09:00:00,25.0,24.0,-100.00,SSW,198,5.0,7.0,97,0.00,,,-99.99,,2013-01-29 16:00:00,
2013-01-29 09:02:00,25.0,24.0,-100.00,SSW,205,3.0,4.0,97,0.04,,,-99.99,,2013-01-29 16:02:00,
2013-01-29 09:12:00,25.0,24.0,-100.00,SSW,192,6.0,8.0,97,0.00,,,-99.99,,2013-01-29 16:12:00,
2013-01-29 09:22:00,25.0,24.0,-100.00,SSW,192,6.0,8.0,97,0.00,,,-99.99,,2013-01-29 16:22:00,
2013-01-29 09:32:00,25.0,24.0,-100.00,SSW,192,6.0,8.0,97,0.00,,,-99.99,,2013-01-29 16:32:00,
2013-01-29 09:42:00,25.0,24.0,-100.00,SSW,198,5.0,7.0,97,0.00,,,-99.99,,2013-01-29 16:42:00,
2013-01-29 09:53:00,25.0,24.0,-100.00,SSW,198,5.0,7.0,97,0.00,,,-99.99,,2013-01-29 16:53:00,
2013-01-29 10:12:00,27.0,26.0,-100.00,SW,232,1.0,1.0,95,0.00,,,-99.99,,2013-01-29 17:12:00,
2013-01-29 10:21:00,27.0,26.0,-100.00,SW,232,1.0,1.0,95,0.00,,,-99.99,,2013-01-29 17:21:00,
2013-01-29 10:32:00,27.0,26.0,-100.00,SW,232,1.0,1.0,95,0.00,,,-99.99,,2013-01-29 17:32:00,
2013-01-29 10:42:00,27.0,25.0,-100.00,SW,226,2.0,4.0,94,0.00,,,-99.99,,2013-01-29 17:42:00,
2013-01-29 10:52:00,27.0,26.0,-100.00,WSW,237,1.0,2.0,94,0.00,,,-99.99,,2013-01-29 17:52:00,
2013-01-29 11:03:00,27.0,26.0,-100.00,WSW,237,1.0,2.0,94,0.00,,,-99.99,,2013-01-29 18:03:00,
2013-01-29 11:12:00,27.0,25.0,-100.00,SSW,203,4.0,6.0,92,0.00,,,-99.99,,2013-01-29 18:12:00,
2013-01-29 11:22:00,27.0,26.0,-100.00,South,191,2.0,3.0,92,0.00,,,-99.99,,2013-01-29 18:22:00,
2013-01-29 11:33:00,27.0,26.0,-100.00,South,191,2.0,3.0,92,0.00,,,-99.99,,2013-01-29 18:33:00,
2013-01-29 11:42:00,29.0,26.0,-100.00,NNW,329,4.0,5.0,88,0.00,,,-99.99,,2013-01-29 18:42:00,
2013-01-29 11:52:00,28.0,25.0,-100.00,North,8,5.0,6.0,88,0.00,,,-99.99,,2013-01-29 18:52:00,
2013-01-29 12:02:00,28.0,25.0,-100.00,North,8,5.0,6.0,88,0.00,,,-99.99,,2013-01-29 19:02:00,
2013-01-29 12:11:00,28.0,25.0,-100.00,North,8,5.0,6.0,88,0.00,,,-99.99,,2013-01-29 19:11:00,
2013-01-29 12:22:00,27.0,25.0,-100.00,NNE,28,5.0,7.0,90,0.00,,,-99.99,,2013-01-29 19:22:00,
2013-01-29 12:31:00,27.0,25.0,-100.00,NNE,28,5.0,7.0,90,0.00,,,-99.99,,2013-01-29 19:31:00,
2013-01-29 12:42:00,29.0,26.0,-100.00,NNE,27,6.0,9.0,88,0.00,,,-99.99,,2013-01-29 19:42:00,
2013-01-29 12:52:00,29.0,25.0,-100.00,North,4,4.0,7.0,86,0.00,,,-99.99,,2013-01-29 19:52:00,
2013-01-29 13:02:00,29.0,25.0,-100.00,North,4,4.0,7.0,86,0.00,,,-99.99,,2013-01-29 20:02:00,
2013-01-29 13:12:00,28.0,25.0,-100.00,NE,41,4.0,5.0,86,0.00,,,-99.99,,2013-01-29 20:12:00,
2013-01-29 13:22:00,28.0,24.0,-100.00,NNE,23,6.0,8.0,85,0.00,,,-99.99,,2013-01-29 20:22:00,
2013-01-29 13:33:00,28.0,24.0,-100.00,NNE,23,6.0,8.0,85,0.00,,,-99.99,,2013-01-29 20:33:00,
2013-01-29 13:42:00,29.0,25.0,-100.00,NE,40,4.0,6.0,85,0.00,,,-99.99,,2013-01-29 20:42:00,
2013-01-29 13:53:00,28.0,26.0,-100.00,NNW,329,2.0,4.0,92,0.00,,,-99.99,,2013-01-29 20:53:00,
2013-01-29 14:02:00,28.0,26.0,-100.00,NNW,329,2.0,4.0,92,0.00,,,-99.99,,2013-01-29 21:02:00,
2013-01-29 14:12:00,28.0,26.0,-100.00,NNW,329,2.0,4.0,92,0.00,,,-99.99,,2013-01-29 21:12:00,
2013-01-29 14:22:00,29.0,27.0,-100.00,SW,215,2.0,3.0,91,0.00,,,-99.99,,2013-01-29 21:22:00,
2013-01-29 14:32:00,29.0,27.0,-100.00,SW,215,2.0,3.0,91,0.00,,,-99.99,,2013-01-29 21:32:00,
2013-01-29 14:42:00,30.0,28.0,-100.00,ENE,78,1.0,2.0,89,0.00,,,-99.99,,2013-01-29 21:42:00,
2013-01-29 14:53:00,31.0,28.0,-100.00,South,179,0.0,1.0,87,0.00,,,-99.99,,2013-01-29 21:53:00,
2013-01-29 15:02:00,31.0,28.0,-100.00,South,179,0.0,1.0,87,0.00,,,-99.99,,2013-01-29 22:02:00,
2013-01-29 15:12:00,31.0,25.0,-100.00,North,350,2.0,5.0,79,0.00,,,-99.99,,2013-01-29 22:12:00,
2013-01-29 15:21:00,30.0,24.0,-100.00,North,10,5.0,7.0,78,0.00,,,-99.99,,2013-01-29 22:21:00,
2013-01-29 15:32:00,30.0,24.0,-100.00,North,10,5.0,7.0,78,0.00,,,-99.99,,2013-01-29 22:32:00,
2013-01-29 15:42:00,31.0,24.0,-100.00,NNE,24,6.0,8.0,77,0.00,,,-99.99,,2013-01-29 22:42:00,
2013-01-29 15:53:00,30.0,25.0,-100.00,NNE,31,7.0,9.0,81,0.00,,,-99.99,,2013-01-29 22:53:00,
2013-01-29 16:02:00,30.0,25.0,-100.00,NNE,31,7.0,9.0,81,0.00,,,-99.99,,2013-01-29 23:02:00,
2013-01-29 16:11:00,30.0,25.0,-100.00,NE,35,6.0,8.0,82,0.00,,,-99.99,,2013-01-29 23:11:00,
2013-01-29 16:22:00,29.0,24.0,-100.00,NE,41,7.0,9.0,81,0.00,,,-99.99,,2013-01-29 23:22:00,
2013-01-29 16:30:00,29.0,23.0,-100.00,NNE,31,3.0,4.0,78,0.00,,,-99.99,,2013-01-29 23:30:00,
2013-01-29 16:32:00,29.0,24.0,-100.00,NE,41,7.0,9.0,81,0.00,,,-99.99,,2013-01-29 23:32:00,
2013-01-29 16:42:00,29.0,24.0,-100.00,NE,34,5.0,6.0,79,0.00,,,-99.99,,2013-01-29 23:42:00,
2013-01-29 16:53:00,29.0,23.0,-100.00,NNE,21,4.0,5.0,79,0.00,,,-99.99,,2013-01-29 23:53:00,
2013-01-29 17:02:00,29.0,23.0,-100.00,NNE,21,4.0,5.0,79,0.00,,,-99.99,,2013-01-30 00:02:00,
2013-01-29 17:11:00,29.0,23.0,-100.00,NNE,31,3.0,4.0,78,0.00,,,-99.99,,2013-01-30 00:11:00,
2013-01-29 17:22:00,29.0,23.0,-100.00,NNE,31,3.0,4.0,78,0.00,,,-99.99,,2013-01-30 00:22:00,
2013-01-29 17:43:00,29.0,23.0,-100.00,ENE,68,4.0,6.0,76,0.00,,,-99.99,,2013-01-30 00:43:00,
2013-01-29 17:53:00,29.0,23.0,-100.00,NE,37,4.0,6.0,80,0.04,,,-99.99,,2013-01-30 00:53:00,
2013-01-29 18:01:00,29.0,23.0,-100.00,NE,37,4.0,6.0,80,0.04,,,-99.99,,2013-01-30 01:01:00,
2013-01-29 18:11:00,29.0,23.0,-100.00,NE,37,4.0,6.0,80,0.04,,,-99.99,,2013-01-30 01:11:00,
2013-01-29 18:22:00,27.0,24.0,-100.00,SSW,208,2.0,3.0,87,0.00,,,-99.99,,2013-01-30 01:22:00,
2013-01-29 18:32:00,27.0,24.0,-100.00,SSW,208,2.0,3.0,87,0.00,,,-99.99,,2013-01-30 01:32:00,
2013-01-29 18:42:00,27.0,24.0,-100.00,SSW,205,2.0,3.0,88,0.00,,,-99.99,,2013-01-30 01:42:00,
2013-01-29 18:52:00,26.0,24.0,-100.00,South,188,3.0,4.0,89,0.00,,,-99.99,,2013-01-30 01:52:00,
2013-01-29 19:02:00,26.0,24.0,-100.00,South,188,3.0,4.0,89,0.00,,,-99.99,,2013-01-30 02:02:00,
2013-01-29 19:12:00,27.0,24.0,-100.00,SSE,162,2.0,3.0,88,0.00,,,-99.99,,2013-01-30 02:12:00,
2013-01-29 19:21:00,26.0,22.0,-100.00,SSE,162,3.0,4.0,87,0.00,,,-99.99,,2013-01-30 02:21:00,
2013-01-29 19:33:00,26.0,22.0,-100.00,SSE,162,3.0,4.0,87,0.00,,,-99.99,,2013-01-30 02:33:00,
2013-01-29 19:42:00,26.0,22.0,-100.00,SSE,162,3.0,4.0,87,0.00,,,-99.99,,2013-01-30 02:42:00,
2013-01-29 19:53:00,26.0,23.0,-100.00,South,178,5.0,6.0,86,0.00,,,-99.99,,2013-01-30 02:53:00,
2013-01-29 20:02:00,26.0,23.0,-100.00,South,178,5.0,6.0,86,0.00,,,-99.99,,2013-01-30 03:02:00,
2013-01-29 20:11:00,26.0,22.0,-100.00,SSE,162,5.0,6.0,85,0.00,,,-99.99,,2013-01-30 03:11:00,
2013-01-29 20:22:00,26.0,22.0,-100.00,SSW,193,3.0,4.0,85,0.00,,,-99.99,,2013-01-30 03:22:00,
2013-01-29 20:32:00,26.0,22.0,-100.00,SSW,193,3.0,4.0,85,0.00,,,-99.99,,2013-01-30 03:32:00,
2013-01-29 20:42:00,25.0,21.0,-100.00,SE,134,4.0,6.0,83,0.00,,,-99.99,,2013-01-30 03:42:00,
2013-01-29 20:52:00,25.0,21.0,-100.00,SE,134,4.0,6.0,83,0.00,,,-99.99,,2013-01-30 03:52:00,
2013-01-29 21:02:00,25.0,21.0,-100.00,SE,134,4.0,6.0,83,0.00,,,-99.99,,2013-01-30 04:02:00,
2013-01-29 21:11:00,26.0,21.0,-100.00,SE,143,4.0,5.0,82,0.00,,,-99.99,,2013-01-30 04:11:00,
2013-01-29 21:22:00,-999.0,20.0,-100.00,SSE,152,4.0,5.0,85,0.00,,,-99.99,,2013-01-30 04:22:00,
2013-01-29 21:32:00,-999.0,20.0,-100.00,SSE,152,4.0,5.0,85,0.00,,,-99.99,,2013-01-30 04:32:00,
2013-01-29 21:41:00,26.0,21.0,-100.00,SSE,154,4.0,5.0,82,0.00,,,-99.99,,2013-01-30 04:41:00,
2013-01-29 21:52:00,26.0,21.0,-100.00,South,189,4.0,6.0,82,0.00,,,-99.99,,2013-01-30 04:52:00,
2013-01-29 22:03:00,26.0,21.0,-100.00,South,189,4.0,6.0,82,0.00,,,-99.99,,2013-01-30 05:03:00,
2013-01-29 22:12:00,-999.0,20.0,-100.00,SSE,158,6.0,8.0,83,0.00,,,-99.99,,2013-01-30 05:12:00,
2013-01-29 22:22:00,26.0,20.0,-100.00,South,188,4.0,5.0,80,0.00,,,-99.99,,2013-01-30 05:22:00,
2013-01-29 22:32:00,26.0,20.0,-100.00,South,188,4.0,5.0,80,0.00,,,-99.99,,2013-01-30 05:32:00,
2013-01-29 22:43:00,26.0,20.0,-100.00,South,188,4.0,5.0,80,0.00,,,-99.99,,2013-01-30 05:43:00,
2013-01-29 22:52:00,26.0,20.0,-100.00,SSE,165,4.0,6.0,79,0.00,,,-99.99,,2013-01-30 05:52:00,
2013-01-29 23:02:00,26.0,20.0,-100.00,SSE,165,4.0,6.0,79,0.00,,,-99.99,,2013-01-30 06:02:00,
2013-01-29 23:11:00,25.0,19.0,-100.00,SSE,162,7.0,8.0,78,0.00,,,-99.99,,2013-01-30 06:11:00,
2013-01-29 23:21:00,26.0,20.0,-100.00,South,169,5.0,7.0,78,0.00,,,-99.99,,2013-01-30 06:21:00,
2013-01-29 23:31:00,26.0,20.0,-100.00,South,169,5.0,7.0,78,0.00,,,-99.99,,2013-01-30 06:31:00,
2013-01-29 23:42:00,-999.0,20.0,-100.00,South,175,4.0,5.0,80,0.00,,,-99.99,,2013-01-30 06:42:00,
2013-01-29 23:52:00,25.0,20.0,-100.00,SSW,192,6.0,8.0,81,0.00,,,-99.99,,2013-01-30 06:52:00,